| time (UTC) | temp F | wind direction | speed MPH | gust MPH | rain 1hr in | rain 24hr in | rain mn in | humidity % | barometer mb |
| 20260509151004 | 73 | 320 | 2.0 | 2.0 | 0.00 | 0.01 | 0.01 | 64 | 1012.2 |
| 20260509150501 | 72 | 15 | 1.0 | 2.0 | 0.00 | 0.01 | 0.01 | 68 | 1012.2 |
| 20260509145959 | 70 | 45 | 0.0 | 1.0 | 0.00 | 0.01 | 0.01 | 72 | 1012.0 |
| 20260509145455 | 70 | 52 | 2.0 | 2.0 | 0.00 | 0.01 | 0.01 | 68 | 1012.0 |
| 20260509144950 | 69 | 320 | 2.0 | 2.0 | 0.00 | 0.01 | 0.01 | 73 | 1012.0 |
| 20260509144447 | 68 | 343 | 1.0 | 1.0 | 0.00 | 0.01 | 0.01 | 75 | 1011.9 |
| 20260509143944 | 68 | 295 | 2.0 | 2.0 | 0.00 | 0.01 | 0.01 | 77 | 1012.0 |
| 20260509143441 | 67 | 350 | 1.0 | 1.0 | 0.00 | 0.01 | 0.01 | 78 | 1012.2 |
| 20260509142938 | 66 | 345 | 3.0 | 3.0 | 0.00 | 0.01 | 0.01 | 80 | 1012.1 |
| 20260509142434 | 66 | 346 | 2.0 | 2.0 | 0.00 | 0.01 | 0.01 | 82 | 1012.1 |
| 20260509141930 | 66 | 298 | 3.0 | 3.0 | 0.00 | 0.01 | 0.01 | 81 | 1011.9 |
| 20260509141427 | 66 | 354 | 3.0 | 4.0 | 0.00 | 0.01 | 0.01 | 84 | 1011.9 |
| 20260509140924 | 66 | 10 | 1.0 | 2.0 | 0.00 | 0.01 | 0.01 | 84 | 1011.7 |
| 20260509140420 | 65 | 350 | 3.0 | 3.0 | 0.00 | 0.01 | 0.01 | 84 | 1011.9 |
| 20260509135918 | 65 | 9 | 3.0 | 3.0 | 0.00 | 0.01 | 0.01 | 84 | 1011.8 |
| 20260509135415 | 65 | 6 | 1.0 | 1.0 | 0.00 | 0.01 | 0.01 | 86 | 1011.6 |
| 20260509134913 | 64 | 248 | 1.0 | 2.0 | 0.00 | 0.01 | 0.01 | 86 | 1011.6 |
| 20260509134410 | 64 | 336 | 0.0 | 1.0 | 0.00 | 0.01 | 0.01 | 89 | 1011.5 |
| 20260509133907 | 63 | 0 | 1.0 | 1.0 | 0.00 | 0.01 | 0.01 | 90 | 1011.6 |
| 20260509133403 | 63 | 21 | 0.0 | 0.0 | 0.00 | 0.01 | 0.01 | 92 | 1011.7 |
| 20260509132902 | 62 | 356 | 0.0 | 1.0 | 0.00 | 0.01 | 0.01 | 94 | 1011.8 |
| 20260509132400 | 62 | 230 | 1.0 | 1.0 | 0.00 | 0.01 | 0.01 | 95 | 1011.7 |
| 20260509131857 | 61 | 352 | 1.0 | 2.0 | 0.00 | 0.01 | 0.01 | 96 | 1011.7 |
| 20260509131354 | 60 | 14 | 0.0 | 1.0 | 0.00 | 0.01 | 0.01 | 97 | 1011.7 |
| 20260509130850 | 61 | 322 | 2.0 | 2.0 | 0.00 | 0.01 | 0.01 | 97 | 1011.6 |
| 20260509130345 | 60 | 18 | 0.0 | 0.0 | 0.00 | 0.01 | 0.01 | 97 | 1011.5 |
| 20260509125843 | 60 | 317 | 0.0 | 0.0 | 0.00 | 0.01 | 0.01 | 98 | 1011.7 |
| 20260509125339 | 59 | 53 | 1.0 | 1.0 | 0.00 | 0.01 | 0.01 | 98 | 1011.8 |
| 20260509124835 | 59 | 336 | 1.0 | 2.0 | 0.00 | 0.01 | 0.01 | 98 | 1011.6 |
| 20260509124332 | 59 | 30 | 2.0 | 2.0 | 0.00 | 0.01 | 0.01 | 98 | 1011.7 |
| 20260509123830 | 58 | 44 | 1.0 | 1.0 | 0.00 | 0.01 | 0.01 | 98 | 1011.4 |
| 20260509123327 | 58 | 0 | 1.0 | 2.0 | 0.00 | 0.01 | 0.01 | 98 | 1011.5 |
| 20260509122823 | 57 | 10 | 0.0 | 1.0 | 0.00 | 0.01 | 0.01 | 98 | 1011.6 |
| 20260509122320 | 57 | 348 | 0.0 | 0.0 | 0.00 | 0.01 | 0.01 | 98 | 1011.2 |
| 20260509121817 | 57 | 27 | 0.0 | 0.0 | 0.00 | 0.01 | 0.01 | 98 | 1011.5 |
| 20260509121314 | 57 | 7 | 0.0 | 0.0 | 0.00 | 0.01 | 0.01 | 98 | 1011.3 |
| 20260509120813 | 57 | 6 | 0.0 | 0.0 | 0.00 | 0.01 | 0.01 | 98 | 1011.3 |
| 20260509120310 | 57 | 6 | 0.0 | 0.0 | 0.00 | 0.01 | 0.01 | 98 | 1011.3 |
| 20260509115808 | 57 | 39 | 0.0 | 0.0 | 0.00 | 0.01 | 0.01 | 98 | 1011.0 |
| 20260509115307 | 56 | 8 | 0.0 | 0.0 | 0.00 | 0.01 | 0.01 | 98 | 1011.0 |
| 20260509114803 | 56 | 14 | 0.0 | 0.0 | 0.00 | 0.01 | 0.01 | 98 | 1011.1 |
| 20260509114301 | 56 | 2 | 0.0 | 0.0 | 0.00 | 0.01 | 0.01 | 98 | 1010.9 |
| 20260509113800 | 56 | 12 | 0.0 | 0.0 | 0.00 | 0.01 | 0.01 | 98 | 1011.1 |
| 20260509113256 | 56 | 357 | 0.0 | 0.0 | 0.00 | 0.01 | 0.01 | 98 | 1011.0 |
| 20260509112753 | 56 | 8 | 0.0 | 0.0 | 0.00 | 0.01 | 0.01 | 98 | 1010.9 |
| 20260509112250 | 55 | 356 | 0.0 | 0.0 | 0.00 | 0.01 | 0.01 | 98 | 1010.9 |
| 20260509111747 | 55 | 12 | 0.0 | 0.0 | 0.00 | 0.01 | 0.01 | 97 | 1011.2 |
| 20260509111244 | 55 | 21 | 0.0 | 0.0 | 0.00 | 0.01 | 0.01 | 97 | 1011.0 |
| 20260509110741 | 56 | 14 | 0.0 | 0.0 | 0.00 | 0.01 | 0.01 | 97 | 1010.9 |
| 20260509110238 | 56 | 335 | 1.0 | 1.0 | 0.00 | 0.01 | 0.01 | 98 | 1011.0 |
| 20260509105736 | 56 | 4 | 0.0 | 0.0 | 0.00 | 0.01 | 0.01 | 97 | 1010.6 |
| 20260509105233 | 56 | 8 | 0.0 | 0.0 | 0.00 | 0.01 | 0.01 | 97 | 1010.9 |
| 20260509104730 | 56 | 7 | 0.0 | 0.0 | 0.00 | 0.01 | 0.01 | 97 | 1010.7 |
| 20260509104227 | 56 | 18 | 0.0 | 0.0 | 0.00 | 0.01 | 0.01 | 97 | 1010.9 |
| 20260509103725 | 56 | 3 | 0.0 | 0.0 | 0.00 | 0.01 | 0.01 | 97 | 1010.7 |
| 20260509103222 | 56 | 359 | 0.0 | 0.0 | 0.00 | 0.01 | 0.01 | 97 | 1010.7 |
| 20260509102720 | 56 | 254 | 1.0 | 2.0 | 0.00 | 0.01 | 0.01 | 97 | 1010.9 |
| 20260509102217 | 56 | 1 | 1.0 | 2.0 | 0.00 | 0.01 | 0.01 | 97 | 1011.0 |
| 20260509101714 | 57 | 344 | 1.0 | 1.0 | 0.00 | 0.01 | 0.01 | 97 | 1010.7 |
| 20260509101210 | 57 | 242 | 3.0 | 3.0 | 0.07 | 0.01 | 0.01 | 97 | 1010.9 |
| 20260509100708 | 57 | 36 | 2.0 | 2.0 | 0.07 | 0.01 | 0.01 | 97 | 1010.6 |
| 20260509100204 | 57 | 33 | 1.0 | 1.0 | 0.00 | 0.00 | 0.00 | 97 | 1011.0 |
| 20260509095701 | 57 | 70 | 3.0 | 4.0 | 0.00 | 0.00 | 0.00 | 97 | 1010.6 |
| 20260509095158 | 57 | 147 | 2.0 | 3.0 | 0.00 | 0.00 | 0.00 | 97 | 1010.9 |
| 20260509094655 | 57 | 24 | 1.0 | 1.0 | 0.00 | 0.00 | 0.00 | 97 | 1011.0 |
| 20260509094152 | 57 | 64 | 1.0 | 1.0 | 0.00 | 0.00 | 0.00 | 97 | 1010.7 |
| 20260509093650 | 57 | 237 | 2.0 | 2.0 | 0.00 | 0.00 | 0.00 | 97 | 1011.0 |
| 20260509093147 | 57 | 349 | 0.0 | 0.0 | 0.00 | 0.00 | 0.00 | 96 | 1011.1 |
| 20260509092645 | 57 | 331 | 2.0 | 2.0 | 0.00 | 0.00 | 0.00 | 97 | 1011.1 |
| 20260509092143 | 57 | 199 | 1.0 | 2.0 | 0.00 | 0.00 | 0.00 | 96 | 1011.2 |
| 20260509091641 | 57 | 206 | 2.0 | 2.0 | 0.00 | 0.00 | 0.00 | 96 | 1011.2 |
| 20260509091137 | 57 | 28 | 1.0 | 2.0 | 0.00 | 0.00 | 0.00 | 96 | 1011.2 |
| 20260509090635 | 57 | 3 | 1.0 | 2.0 | 0.00 | 0.00 | 0.00 | 96 | 1011.3 |
| 20260509090132 | 57 | 10 | 0.0 | 0.0 | 0.00 | 0.00 | 0.00 | 96 | 1011.1 |
| 20260509085629 | 57 | 359 | 1.0 | 1.0 | 0.00 | 0.00 | 0.00 | 96 | 1011.2 |
| 20260509085125 | 57 | 224 | 2.0 | 2.0 | 0.00 | 0.00 | 0.00 | 96 | 1011.2 |
| 20260509084623 | 57 | 340 | 1.0 | 1.0 | 0.00 | 0.00 | 0.00 | 96 | 1011.2 |
| 20260509084119 | 57 | 32 | 1.0 | 1.0 | 0.00 | 0.00 | 0.00 | 96 | 1011.0 |
| 20260509083617 | 56 | 216 | 4.0 | 4.0 | 0.00 | 0.00 | 0.00 | 96 | 1011.0 |
| 20260509083113 | 56 | 328 | 0.0 | 0.0 | 0.00 | 0.00 | 0.00 | 96 | 1010.9 |
| 20260509082611 | 56 | 314 | 0.0 | 0.0 | 0.00 | 0.00 | 0.00 | 96 | 1010.9 |
| 20260509082107 | 56 | 310 | 0.0 | 0.0 | 0.00 | 0.00 | 0.00 | 95 | 1010.6 |
| 20260509081605 | 56 | 27 | 0.0 | 0.0 | 0.00 | 0.00 | 0.00 | 95 | 1010.5 |
| 20260509081101 | 57 | 28 | 0.0 | 0.0 | 0.00 | 0.00 | 0.00 | 95 | 1010.6 |
| 20260509080600 | 57 | 46 | 0.0 | 1.0 | 0.00 | 0.00 | 0.00 | 95 | 1010.6 |
| 20260509080057 | 57 | 33 | 0.0 | 0.0 | 0.00 | 0.00 | 0.00 | 95 | 1010.4 |
| 20260509075555 | 57 | 18 | 0.0 | 0.0 | 0.00 | 0.00 | 0.00 | 95 | 1010.5 |
| 20260509075053 | 57 | 26 | 0.0 | 0.0 | 0.00 | 0.00 | 0.00 | 95 | 1010.9 |
| 20260509074549 | 57 | 29 | 0.0 | 0.0 | 0.00 | 0.00 | 0.00 | 94 | 1010.6 |
| 20260509074046 | 57 | 40 | 0.0 | 0.0 | 0.00 | 0.00 | 0.00 | 94 | 1010.7 |
| 20260509073542 | 57 | 354 | 0.0 | 0.0 | 0.00 | 0.00 | 0.00 | 94 | 1011.0 |
| 20260509073039 | 58 | 2 | 0.0 | 0.0 | 0.00 | 0.00 | 0.00 | 94 | 1011.1 |
| 20260509072535 | 58 | 12 | 0.0 | 1.0 | 0.00 | 0.00 | 0.00 | 94 | 1011.3 |
| 20260509072032 | 58 | 348 | 0.0 | 0.0 | 0.00 | 0.00 | 0.00 | 94 | 1011.0 |
| 20260509071529 | 58 | 1 | 0.0 | 0.0 | 0.00 | 0.00 | 0.00 | 93 | 1011.2 |
| 20260509071026 | 58 | 232 | 3.0 | 3.0 | 0.00 | 0.00 | 0.00 | 93 | 1011.0 |
| 20260509070524 | 58 | 354 | 1.0 | 1.0 | 0.00 | 0.00 | 0.00 | 93 | 1010.9 |
| 20260509070020 | 58 | 248 | 2.0 | 2.0 | 0.00 | 0.00 | 0.00 | 93 | 1011.2 |
| 20260509065515 | 58 | 212 | 4.0 | 4.0 | 0.00 | 0.00 | 0.00 | 93 | 1011.1 |
| 20260509065011 | 58 | 316 | 1.0 | 1.0 | 0.00 | 0.00 | 0.00 | 93 | 1011.2 |
| 20260509064509 | 58 | 216 | 2.0 | 4.0 | 0.00 | 0.00 | 0.00 | 93 | 1011.1 |
| 20260509064007 | 58 | 171 | 2.0 | 2.0 | 0.00 | 0.00 | 0.00 | 93 | 1011.0 |
| 20260509063502 | 58 | 250 | 2.0 | 3.0 | 0.00 | 0.00 | 0.00 | 94 | 1011.2 |
| 20260509063000 | 58 | 5 | 0.0 | 1.0 | 0.00 | 0.00 | 0.00 | 94 | 1011.1 |
| 20260509062457 | 58 | 118 | 1.0 | 1.0 | 0.00 | 0.00 | 0.00 | 94 | 1011.1 |
| 20260509061955 | 58 | 248 | 1.0 | 1.0 | 0.00 | 0.00 | 0.00 | 95 | 1011.1 |
| 20260509061451 | 58 | 292 | 1.0 | 2.0 | 0.00 | 0.00 | 0.00 | 95 | 1011.0 |
| 20260509060949 | 58 | 100 | 2.0 | 2.0 | 0.00 | 0.00 | 0.00 | 95 | 1011.0 |
| 20260509060446 | 58 | 61 | 2.0 | 2.0 | 0.00 | 0.00 | 0.00 | 96 | 1011.0 |
| 20260509055942 | 57 | 168 | 1.0 | 1.0 | 0.00 | 0.00 | 0.00 | 96 | 1011.1 |
| 20260509055437 | 56 | 107 | 1.0 | 1.0 | 0.00 | 0.00 | 0.00 | 96 | 1011.1 |
| 20260509054933 | 56 | 10 | 0.0 | 0.0 | 0.00 | 0.00 | 0.00 | 95 | 1011.1 |
| 20260509054430 | 56 | 29 | 0.0 | 0.0 | 0.00 | 0.00 | 0.00 | 95 | 1011.1 |
| 20260509053929 | 56 | 33 | 0.0 | 0.0 | 0.00 | 0.00 | 0.00 | 95 | 1011.2 |
| 20260509053426 | 56 | 19 | 0.0 | 0.0 | 0.00 | 0.00 | 0.00 | 95 | 1011.1 |
| 20260509052923 | 56 | 26 | 0.0 | 0.0 | 0.00 | 0.00 | 0.00 | 94 | 1011.1 |
| 20260509052421 | 56 | 4 | 0.0 | 0.0 | 0.00 | 0.00 | 0.00 | 94 | 1011.4 |
| 20260509051919 | 57 | 14 | 0.0 | 0.0 | 0.00 | 0.00 | 0.00 | 94 | 1011.5 |
| 20260509051416 | 57 | 8 | 0.0 | 0.0 | 0.00 | 0.00 | 0.00 | 93 | 1011.4 |
| 20260509050913 | 57 | 13 | 0.0 | 0.0 | 0.00 | 0.00 | 0.00 | 93 | 1011.6 |
| 20260509050410 | 57 | 8 | 0.0 | 0.0 | 0.00 | 0.00 | 0.00 | 93 | 1011.6 |
| 20260509045907 | 57 | 15 | 0.0 | 0.0 | 0.00 | 0.00 | 0.00 | 93 | 1011.4 |
| 20260509045403 | 58 | 10 | 0.0 | 0.0 | 0.00 | 0.00 | 0.00 | 93 | 1011.4 |
| 20260509044901 | 58 | 11 | 0.0 | 0.0 | 0.00 | 0.00 | 0.00 | 93 | 1011.5 |
| 20260509044358 | 58 | 8 | 0.0 | 0.0 | 0.00 | 0.00 | 0.00 | 92 | 1011.3 |
| 20260509043855 | 58 | 29 | 0.0 | 0.0 | 0.00 | 0.00 | 0.00 | 92 | 1011.4 |
| 20260509043351 | 58 | 24 | 0.0 | 0.0 | 0.00 | 0.00 | 0.00 | 92 | 1011.5 |
| 20260509042847 | 58 | 83 | 0.0 | 0.0 | 0.00 | 0.00 | 0.00 | 92 | 1011.3 |
| 20260509042343 | 59 | 2 | 0.0 | 0.0 | 0.00 | 0.00 | 0.00 | 92 | 1011.5 |
| 20260509041840 | 59 | 318 | 0.0 | 0.0 | 0.00 | 0.00 | 0.00 | 92 | 1011.4 |
| 20260509041337 | 59 | 19 | 0.0 | 0.0 | 0.00 | 0.00 | 0.00 | 91 | 1011.4 |
| 20260509040835 | 59 | 0 | 0.0 | 0.0 | 0.00 | 0.00 | 0.00 | 91 | 1011.4 |
| 20260509040333 | 59 | 8 | 0.0 | 0.0 | 0.00 | 0.00 | 0.00 | 90 | 1011.5 |
| 20260509035829 | 59 | 0 | 0.0 | 0.0 | 0.00 | 0.00 | 0.00 | 90 | 1011.3 |
| 20260509035327 | 59 | 359 | 0.0 | 0.0 | 0.00 | 0.00 | 0.00 | 90 | 1011.1 |
| 20260509034822 | 59 | 12 | 0.0 | 0.0 | 0.00 | 0.00 | 0.00 | 89 | 1011.1 |
| 20260509034321 | 60 | 34 | 0.0 | 0.0 | 0.00 | 0.00 | 0.00 | 89 | 1010.9 |
| 20260509033817 | 60 | 14 | 0.0 | 0.0 | 0.00 | 0.00 | 0.00 | 88 | 1010.7 |
| 20260509033315 | 60 | 4 | 0.0 | 0.0 | 0.00 | 0.00 | 0.00 | 88 | 1011.0 |
| 20260509032811 | 60 | 4 | 0.0 | 0.0 | 0.00 | 0.00 | 0.00 | 87 | 1011.0 |
| 20260509032308 | 60 | 6 | 0.0 | 0.0 | 0.00 | 0.00 | 0.00 | 86 | 1010.9 |
| 20260509031806 | 61 | 6 | 0.0 | 0.0 | 0.00 | 0.00 | 0.00 | 86 | 1010.9 |
| 20260509031303 | 61 | 6 | 0.0 | 0.0 | 0.00 | 0.00 | 0.00 | 85 | 1010.9 |
| 20260509030801 | 61 | 3 | 0.0 | 0.0 | 0.00 | 0.00 | 0.00 | 85 | 1010.7 |
| 20260509030259 | 61 | 5 | 0.0 | 0.0 | 0.00 | 0.00 | 0.00 | 84 | 1010.6 |
| 20260509025755 | 62 | 7 | 0.0 | 0.0 | 0.00 | 0.00 | 0.00 | 84 | 1010.7 |
| 20260509025250 | 62 | 5 | 0.0 | 0.0 | 0.00 | 0.00 | 0.00 | 83 | 1010.5 |
| 20260509024746 | 62 | 6 | 0.0 | 0.0 | 0.00 | 0.00 | 0.00 | 83 | 1010.5 |
| 20260509024242 | 62 | 9 | 0.0 | 0.0 | 0.00 | 0.00 | 0.00 | 82 | 1010.5 |
| 20260509023740 | 62 | 352 | 0.0 | 0.0 | 0.00 | 0.00 | 0.00 | 81 | 1010.4 |
| 20260509023237 | 63 | 4 | 0.0 | 0.0 | 0.00 | 0.00 | 0.00 | 80 | 1010.3 |
| 20260509022733 | 63 | 354 | 0.0 | 0.0 | 0.00 | 0.00 | 0.00 | 79 | 1010.1 |
| 20260509022231 | 64 | 2 | 0.0 | 0.0 | 0.00 | 0.00 | 0.00 | 78 | 1009.9 |
| 20260509021727 | 64 | 358 | 0.0 | 0.0 | 0.00 | 0.00 | 0.00 | 77 | 1009.8 |
| 20260509021225 | 64 | 19 | 0.0 | 0.0 | 0.00 | 0.00 | 0.00 | 76 | 1009.8 |
| 20260509020723 | 64 | 317 | 2.0 | 2.0 | 0.00 | 0.00 | 0.00 | 76 | 1010.0 |
| 20260509020219 | 64 | 322 | 0.0 | 1.0 | 0.00 | 0.00 | 0.00 | 74 | 1009.7 |
| 20260509015718 | 64 | 350 | 1.0 | 1.0 | 0.00 | 0.00 | 0.00 | 73 | 1009.5 |
| 20260509015216 | 65 | 359 | 3.0 | 4.0 | 0.00 | 0.00 | 0.00 | 72 | 1009.2 |
| 20260509014712 | 65 | 321 | 6.0 | 7.0 | 0.00 | 0.00 | 0.00 | 71 | 1009.0 |
| 20260509014209 | 65 | 345 | 1.0 | 1.0 | 0.00 | 0.00 | 0.00 | 70 | 1008.6 |
| 20260509013705 | 65 | 9 | 1.0 | 1.0 | 0.00 | 0.00 | 0.00 | 69 | 1008.2 |
| 20260509013201 | 66 | 10 | 0.0 | 0.0 | 0.00 | 0.00 | 0.00 | 67 | 1008.3 |
| 20260509012658 | 66 | 6 | 1.0 | 1.0 | 0.00 | 0.00 | 0.00 | 66 | 1008.2 |
| 20260509012154 | 67 | 6 | 0.0 | 0.0 | 0.00 | 0.00 | 0.00 | 65 | 1007.9 |
| 20260509011652 | 67 | 346 | 1.0 | 1.0 | 0.00 | 0.00 | 0.00 | 63 | 1007.7 |
| 20260509011149 | 67 | 230 | 2.0 | 4.0 | 0.00 | 0.00 | 0.00 | 63 | 1007.8 |
| 20260509010647 | 68 | 19 | 0.0 | 0.0 | 0.00 | 0.00 | 0.00 | 63 | 1007.8 |
| 20260509010143 | 68 | 184 | 2.0 | 3.0 | 0.00 | 0.00 | 0.00 | 63 | 1007.6 |
| 20260509005641 | 68 | 202 | 3.0 | 3.0 | 0.00 | 0.00 | 0.00 | 63 | 1007.7 |
| 20260509005137 | 68 | 217 | 4.0 | 6.0 | 0.00 | 0.00 | 0.00 | 63 | 1007.6 |
| 20260509004633 | 68 | 9 | 2.0 | 3.0 | 0.00 | 0.00 | 0.00 | 63 | 1007.3 |
| 20260509004130 | 68 | 304 | 2.0 | 2.0 | 0.00 | 0.00 | 0.00 | 65 | 1007.2 |
| 20260509003629 | 67 | 296 | 1.0 | 1.0 | 0.00 | 0.00 | 0.00 | 66 | 1007.2 |
| 20260509003126 | 67 | 223 | 5.0 | 7.0 | 0.00 | 0.00 | 0.00 | 67 | 1007.3 |
| 20260509002623 | 67 | 200 | 4.0 | 6.0 | 0.00 | 0.00 | 0.00 | 68 | 1007.6 |
| 20260509002120 | 68 | 187 | 6.0 | 8.0 | 0.00 | 0.00 | 0.00 | 67 | 1007.3 |
| 20260509001618 | 68 | 166 | 3.0 | 3.0 | 0.00 | 0.00 | 0.00 | 68 | 1007.8 |
| 20260509001113 | 68 | 209 | 3.0 | 3.0 | 0.00 | 0.00 | 0.00 | 67 | 1008.4 |
| 20260509000612 | 68 | 217 | 5.0 | 7.0 | 0.00 | 0.00 | 0.00 | 67 | 1008.1 |
| 20260509000108 | 68 | 120 | 4.0 | 4.0 | 0.00 | 0.00 | 0.00 | 65 | 1008.2 |
| 20260508235606 | 69 | 239 | 2.0 | 3.0 | 0.00 | 0.00 | 0.00 | 63 | 1008.0 |
| 20260508235102 | 69 | 202 | 3.0 | 4.0 | 0.00 | 0.00 | 0.00 | 62 | 1007.8 |
| 20260508234559 | 69 | 194 | 4.0 | 6.0 | 0.00 | 0.00 | 0.00 | 61 | 1007.3 |
| 20260508234056 | 69 | 182 | 4.0 | 4.0 | 0.00 | 0.00 | 0.00 | 62 | 1007.5 |
| 20260508233555 | 69 | 71 | 2.0 | 3.0 | 0.00 | 0.00 | 0.00 | 63 | 1007.2 |
| 20260508233052 | 69 | 108 | 4.0 | 6.0 | 0.00 | 0.00 | 0.00 | 62 | 1007.1 |
| 20260508232549 | 69 | 176 | 4.0 | 6.0 | 0.00 | 0.00 | 0.00 | 63 | 1007.0 |
| 20260508232046 | 69 | 67 | 2.0 | 3.0 | 0.00 | 0.00 | 0.00 | 63 | 1007.0 |
| 20260508231544 | 69 | 183 | 4.0 | 6.0 | 0.00 | 0.00 | 0.00 | 63 | 1007.0 |
| 20260508231041 | 69 | 222 | 4.0 | 6.0 | 0.00 | 0.00 | 0.00 | 64 | 1007.6 |
| 20260508230537 | 69 | 152 | 4.0 | 4.0 | 0.00 | 0.00 | 0.00 | 64 | 1007.8 |
| 20260508230034 | 69 | 112 | 3.0 | 3.0 | 0.00 | 0.00 | 0.00 | 65 | 1007.9 |
| 20260508225531 | 69 | 168 | 2.0 | 3.0 | 0.00 | 0.00 | 0.00 | 66 | 1007.9 |
| 20260508225028 | 69 | 246 | 4.0 | 4.0 | 0.00 | 0.00 | 0.00 | 64 | 1008.0 |
| 20260508224526 | 69 | 176 | 4.0 | 4.0 | 0.00 | 0.00 | 0.00 | 65 | 1008.2 |
| 20260508224023 | 69 | 179 | 4.0 | 6.0 | 0.00 | 0.00 | 0.00 | 66 | 1008.2 |
| 20260508223521 | 69 | 193 | 3.0 | 4.0 | 0.00 | 0.00 | 0.00 | 65 | 1008.7 |
| 20260508223018 | 69 | 178 | 2.0 | 2.0 | 0.00 | 0.00 | 0.00 | 65 | 1008.9 |
| 20260508222515 | 69 | 255 | 2.0 | 2.0 | 0.00 | 0.00 | 0.00 | 65 | 1009.2 |
| 20260508222012 | 69 | 219 | 2.0 | 3.0 | 0.00 | 0.00 | 0.00 | 64 | 1009.0 |
| 20260508221508 | 69 | 276 | 3.0 | 3.0 | 0.00 | 0.00 | 0.00 | 62 | 1009.1 |
| 20260508221004 | 70 | 264 | 3.0 | 3.0 | 0.00 | 0.00 | 0.00 | 61 | 1009.3 |
| 20260508220500 | 70 | 335 | 2.0 | 3.0 | 0.00 | 0.00 | 0.00 | 61 | 1009.5 |
| 20260508215956 | 71 | 311 | 3.0 | 4.0 | 0.00 | 0.00 | 0.00 | 59 | 1009.4 |
| 20260508215454 | 72 | 98 | 4.0 | 4.0 | 0.00 | 0.00 | 0.00 | 58 | 1009.4 |
| 20260508214950 | 73 | 241 | 2.0 | 2.0 | 0.00 | 0.00 | 0.00 | 56 | 1009.6 |
| 20260508214448 | 73 | 336 | 2.0 | 2.0 | 0.00 | 0.00 | 0.00 | 53 | 1009.3 |
| 20260508213944 | 74 | 356 | 1.0 | 1.0 | 0.00 | 0.00 | 0.00 | 52 | 1009.0 |
| 20260508213442 | 74 | 26 | 0.0 | 0.0 | 0.00 | 0.00 | 0.00 | 51 | 1009.1 |
| 20260508212937 | 74 | 5 | 0.0 | 0.0 | 0.00 | 0.00 | 0.00 | 50 | 1009.0 |
| 20260508212434 | 74 | 6 | 0.0 | 1.0 | 0.00 | 0.00 | 0.00 | 49 | 1009.3 |
| 20260508211930 | 75 | 2 | 2.0 | 2.0 | 0.00 | 0.00 | 0.00 | 47 | 1009.2 |
| 20260508211425 | 75 | 301 | 3.0 | 4.0 | 0.00 | 0.00 | 0.00 | 45 | 1009.2 |
| 20260508210923 | 75 | 281 | 2.0 | 3.0 | 0.00 | 0.00 | 0.00 | 43 | 1009.1 |
| 20260508210419 | 75 | 186 | 5.0 | 7.0 | 0.00 | 0.00 | 0.00 | 43 | 1009.1 |
| 20260508205915 | 75 | 253 | 4.0 | 6.0 | 0.00 | 0.00 | 0.00 | 45 | 1008.9 |
| 20260508205413 | 75 | 200 | 8.0 | 10.0 | 0.00 | 0.00 | 0.00 | 43 | 1008.7 |
| 20260508204909 | 75 | 131 | 4.0 | 4.0 | 0.00 | 0.00 | 0.00 | 44 | 1009.0 |
| 20260508204407 | 76 | 165 | 2.0 | 3.0 | 0.00 | 0.00 | 0.00 | 44 | 1008.9 |
| 20260508203902 | 76 | 258 | 6.0 | 10.0 | 0.00 | 0.00 | 0.00 | 43 | 1009.1 |
| 20260508203358 | 77 | 24 | 2.0 | 3.0 | 0.00 | 0.00 | 0.00 | 42 | 1008.9 |
| 20260508202854 | 77 | 209 | 3.0 | 4.0 | 0.00 | 0.00 | 0.00 | 43 | 1009.1 |
| 20260508202351 | 77 | 213 | 5.0 | 7.0 | 0.00 | 0.00 | 0.00 | 42 | 1009.0 |
| 20260508201849 | 77 | 117 | 3.0 | 4.0 | 0.00 | 0.00 | 0.00 | 42 | 1009.2 |
| 20260508201345 | 77 | 203 | 3.0 | 3.0 | 0.00 | 0.00 | 0.00 | 41 | 1009.4 |
| 20260508200842 | 78 | 215 | 7.0 | 8.0 | 0.00 | 0.00 | 0.00 | 40 | 1009.3 |
| 20260508200339 | 79 | 171 | 6.0 | 8.0 | 0.00 | 0.00 | 0.00 | 38 | 1009.4 |
| 20260508195834 | 78 | 194 | 1.0 | 2.0 | 0.00 | 0.00 | 0.00 | 42 | 1009.2 |
| 20260508195331 | 79 | 194 | 5.0 | 7.0 | 0.00 | 0.00 | 0.00 | 40 | 1009.3 |
| 20260508194827 | 79 | 244 | 4.0 | 4.0 | 0.00 | 0.00 | 0.00 | 40 | 1009.6 |
| 20260508194325 | 79 | 141 | 6.0 | 8.0 | 0.00 | 0.00 | 0.00 | 38 | 1009.6 |
| 20260508193821 | 78 | 202 | 2.0 | 6.0 | 0.00 | 0.00 | 0.00 | 41 | 1009.6 |
| 20260508193319 | 78 | 217 | 6.0 | 10.0 | 0.00 | 0.00 | 0.00 | 40 | 1010.1 |
| 20260508192814 | 78 | 201 | 4.0 | 7.0 | 0.00 | 0.00 | 0.00 | 39 | 1009.7 |
| 20260508192312 | 78 | 210 | 6.0 | 8.0 | 0.00 | 0.00 | 0.00 | 40 | 1009.8 |
| 20260508191809 | 78 | 198 | 9.0 | 10.0 | 0.00 | 0.00 | 0.00 | 39 | 1009.8 |
| 20260508191306 | 77 | 241 | 4.0 | 6.0 | 0.00 | 0.00 | 0.00 | 40 | 1009.8 |
| 20260508190803 | 77 | 190 | 6.0 | 8.0 | 0.00 | 0.00 | 0.00 | 40 | 1010.0 |
| 20260508190259 | 77 | 266 | 5.0 | 8.0 | 0.00 | 0.00 | 0.00 | 41 | 1010.0 |
| 20260508185756 | 77 | 274 | 2.0 | 6.0 | 0.00 | 0.00 | 0.00 | 43 | 1010.1 |
| 20260508185253 | 77 | 213 | 2.0 | 3.0 | 0.00 | 0.00 | 0.00 | 42 | 1010.3 |
| 20260508184750 | 77 | 94 | 4.0 | 7.0 | 0.00 | 0.00 | 0.00 | 43 | 1010.4 |
| 20260508184248 | 77 | 35 | 3.0 | 6.0 | 0.00 | 0.00 | 0.00 | 42 | 1010.3 |
| 20260508183744 | 76 | 312 | 5.0 | 7.0 | 0.00 | 0.00 | 0.00 | 42 | 1010.3 |
| 20260508183241 | 76 | 226 | 5.0 | 7.0 | 0.00 | 0.00 | 0.00 | 43 | 1010.3 |
| 20260508182737 | 77 | 224 | 6.0 | 8.0 | 0.00 | 0.00 | 0.00 | 41 | 1010.4 |
| 20260508182234 | 77 | 195 | 6.0 | 8.0 | 0.00 | 0.00 | 0.00 | 41 | 1010.7 |
| 20260508181729 | 76 | 288 | 4.0 | 7.0 | 0.00 | 0.00 | 0.00 | 44 | 1010.6 |
| 20260508181227 | 76 | 225 | 10.0 | 13.0 | 0.00 | 0.00 | 0.00 | 42 | 1010.9 |
| 20260508180723 | 76 | 172 | 10.0 | 13.0 | 0.00 | 0.00 | 0.00 | 43 | 1011.0 |
| 20260508180220 | 76 | 271 | 6.0 | 9.0 | 0.00 | 0.00 | 0.00 | 44 | 1011.1 |
| 20260508175717 | 77 | 169 | 7.0 | 9.0 | 0.00 | 0.00 | 0.00 | 43 | 1011.0 |
| 20260508175213 | 76 | 204 | 7.0 | 8.0 | 0.00 | 0.00 | 0.00 | 43 | 1011.0 |
| 20260508174712 | 75 | 359 | 3.0 | 4.0 | 0.00 | 0.00 | 0.00 | 44 | 1011.0 |
| 20260508174208 | 75 | 212 | 4.0 | 6.0 | 0.00 | 0.00 | 0.00 | 44 | 1011.0 |
| 20260508173704 | 75 | 207 | 6.0 | 9.0 | 0.00 | 0.00 | 0.00 | 45 | 1010.9 |
| 20260508173200 | 75 | 181 | 8.0 | 9.0 | 0.00 | 0.00 | 0.00 | 44 | 1011.2 |
| 20260508172658 | 74 | 197 | 6.0 | 7.0 | 0.00 | 0.00 | 0.00 | 45 | 1011.3 |
| 20260508172155 | 74 | 204 | 5.0 | 6.0 | 0.00 | 0.00 | 0.00 | 46 | 1011.2 |
| 20260508171651 | 73 | 102 | 5.0 | 6.0 | 0.00 | 0.00 | 0.00 | 48 | 1011.3 |
| 20260508171147 | 74 | 208 | 10.0 | 11.0 | 0.00 | 0.00 | 0.00 | 46 | 1011.4 |
| 20260508170644 | 73 | 30 | 4.0 | 7.0 | 0.00 | 0.00 | 0.00 | 49 | 1011.7 |
| 20260508170142 | 72 | 167 | 2.0 | 4.0 | 0.00 | 0.00 | 0.00 | 50 | 1011.6 |
| 20260508165639 | 72 | 179 | 8.0 | 11.0 | 0.00 | 0.00 | 0.00 | 49 | 1011.9 |
| 20260508165136 | 72 | 193 | 7.0 | 9.0 | 0.00 | 0.00 | 0.00 | 50 | 1011.9 |
| 20260508164632 | 72 | 358 | 2.0 | 4.0 | 0.00 | 0.00 | 0.00 | 51 | 1012.0 |
| 20260508164129 | 72 | 219 | 5.0 | 10.0 | 0.00 | 0.00 | 0.00 | 52 | 1012.1 |
| 20260508163627 | 72 | 101 | 3.0 | 4.0 | 0.00 | 0.00 | 0.00 | 51 | 1012.1 |
| 20260508163124 | 71 | 196 | 4.0 | 4.0 | 0.00 | 0.00 | 0.00 | 54 | 1012.1 |
| 20260508162620 | 71 | 223 | 6.0 | 7.0 | 0.00 | 0.00 | 0.00 | 52 | 1012.3 |
| 20260508162118 | 71 | 146 | 7.0 | 9.0 | 0.00 | 0.00 | 0.00 | 54 | 1012.3 |
| 20260508161614 | 70 | 189 | 6.0 | 9.0 | 0.00 | 0.00 | 0.00 | 55 | 1012.7 |
| 20260508161112 | 70 | 181 | 10.0 | 14.0 | 0.00 | 0.00 | 0.00 | 54 | 1012.6 |
| 20260508160610 | 70 | 221 | 8.0 | 15.0 | 0.00 | 0.00 | 0.00 | 55 | 1012.5 |
| 20260508160107 | 69 | 174 | 8.0 | 16.0 | 0.00 | 0.00 | 0.00 | 56 | 1012.7 |
| 20260508155604 | 69 | 208 | 5.0 | 8.0 | 0.00 | 0.00 | 0.00 | 57 | 1012.8 |
| 20260508155101 | 69 | 210 | 6.0 | 8.0 | 0.00 | 0.00 | 0.00 | 57 | 1012.8 |
| 20260508154558 | 69 | 285 | 5.0 | 7.0 | 0.00 | 0.00 | 0.00 | 58 | 1013.1 |
| 20260508154055 | 68 | 203 | 3.0 | 4.0 | 0.00 | 0.00 | 0.00 | 60 | 1013.1 |
| 20260508153551 | 68 | 136 | 5.0 | 7.0 | 0.00 | 0.00 | 0.00 | 59 | 1013.1 |
| 20260508153047 | 67 | 113 | 6.0 | 8.0 | 0.00 | 0.00 | 0.00 | 61 | 1013.1 |
| 20260508152545 | 68 | 194 | 9.0 | 11.0 | 0.00 | 0.00 | 0.00 | 59 | 1013.2 |
| 20260508152040 | 67 | 184 | 3.0 | 4.0 | 0.00 | 0.00 | 0.00 | 61 | 1013.3 |
| 20260508151537 | 67 | 136 | 8.0 | 14.0 | 0.00 | 0.00 | 0.00 | 61 | 1013.3 |